COSMOS 1134

Satellite information

Favourite Embed

Satellite Type and Status

PAYLOADIN ORBIT

Key statistics

Satellite COSMOS 1134 at a glance.

Uptime

16882

Days in orbit

Revolutions

≈ 12.5

Per day

Orbit

LEO

Low Earth Orbit

Inclination

74.0

Latest

Satellite identification and parameters

Extended collection of information and parameters for COSMOS 1134.

Object identification

Identified? True

Debris? False

Object name: COSMOS 1134

International designator: 1979-084E

Object number (NORAD): 11542

Object ID (CCSDS): 11542

Country: COMMONWEALTH OF INDEPENDENT STATES (CIS)

Current information (Y/N): Y

RCS size: MEDIUM

Orbital parameters

Period: 115.285 minutes

Inclination: 74.0248 deg

SMA: 7846.498 km

Apoapsis: 1482.976 km

Periapsis: 1453.751 km

RAAN: 251.7643 deg

Eccentricy: 0.00186233

Argument of periapsis: 22.1063 deg

Mean anomaly: 41.8998 deg

Mean motion: 12.4907621 rev/day

Mean motion (dot): -0.00000016 rev/day2

B* drag term: -0.000002612357 1/REarth

Two-line elements (TLE)

Creation date: Dec. 14, 2025, 3:07 a.m.

Reference frame: TEME

Reference center: EARTH

Epoch: Dec. 13, 2025, 5:17 p.m. UTC

TLE line 0: 0 COSMOS 1134

TLE line 1: 1 11542U 79084E 25347.72028887 -.00000016 00000-0 -26124-5 0 9993

TLE line 2: 2 11542 74.0248 251.7643 0018623 22.1063 41.8998 12.49076210107450

Live tracking on map

Real-time ground track for satellite COSMOS 1134.

In-orbit conjunctions

There are no conjunctions computed for COSMOS 1134, at the moment. Check back to stay up to date, as we update our databases every day.

Go to all conjunctions

Associated space launch

Biological research satellite carrying live organisms

COSMOS 1134 was lifted into orbit during the mission ‘Soyuz U | Bion 5’, on board a Soyuz U space rocket.

The launch took place on Sept. 25, 1979, 3:30 p.m. from 41/1.

For more information about the launch, click the button.

Launch to space Soyuz U | Bion 5
Soyuz U | Bion 5

Agency: N/A

Status: Launch Successful

Launch date: Sept. 25, 1979, 3:30 p.m. UTC

Rocket: Soyuz U

Launch pad: 41/1

Location: Plesetsk Cosmodrome, Russian Federation

...

Latest news about this satellite

There are no fresh news available about this satellite. Check back as we update our databases every day.


Newsletter sign-up

Weekly statistics, charts and insights to help you stay on top of the space industry.